Skip Page Navigation
NASA JPL Caltech
NASA Logo - Jet Propulsion Laboratory + View the NASA Portal
+ Center for Near-Earth Object Studies
JPL Home Earth Solar System Stars & Galaxies Technology
JPL Solar System Dynamics
BODIES ORBITS EPHEMERIDES TOOLS PHYSICAL DATA DISCOVERY FAQ SITE MAP
JPL Small-Body Database Browser
Search: [ help ]  
117611 (2005 EB92)
Classification: Main-belt Asteroid          SPK-ID: 2117611
Ephemeris | Orbit Diagram | Orbital Elements | Mission Design | Physical Parameters | Discovery Circumstances ]

[ hide orbit diagram ]

For accurate long-term ephemerides, please instead use our Horizons system.This orbit viewer was implemented using two-body methods, and hence should not be used for determining accurate long-term trajectories (over several years or decades) or planetary encounter circumstances.


[ revert to old Java-based viewer ]

Orbital Elements at Epoch 2459000.5 (2020-May-31.0) TDB
Reference: JPL 15 (heliocentric ecliptic J2000)
 Element Value Uncertainty (1-sigma)   Units 
e .1810876444021103 5.028e-08  
a 2.288679099585806 9.1839e-09 au
q 1.87422759264947 1.1353e-07 au
i 4.686068427120638 5.7774e-06 deg
node 44.0981221189993 5.1479e-05 deg
peri 187.184927850338 5.3389e-05 deg
M 106.4826264161491 1.2287e-05 deg
tp 2458626.430726585383
(2019-May-22.93072659)
4.2975e-05 TDB
period 1264.66582353982
3.46
7.6122e-06
2.084e-08
d
yr
n .2846601792340321 1.7134e-09 deg/d
Q 2.703130606522143 1.0847e-08 au
  Orbit Determination Parameters
   # obs. used (total)      391  
   data-arc span      8219 days (22.50 yr)  
   first obs. used      1996-11-08  
   last obs. used      2019-05-11  
   planetary ephem.      DE431  
   SB-pert. ephem.      SB431-N16  
   condition code      0  
   norm. resid. RMS      .59449  
   source      ORB  
   producer      Otto Matic  
   solution date      2019-May-30 06:54:56  

Additional Information
 Earth MOID = .863799 au 
 Jupiter MOID = 2.28834 au 
 T_jup = 3.574 
[ show covariance matrix ]

Ephemeris | Orbit Diagram | Orbital Elements | Mission Design | Physical Parameters | Discovery Circumstances ]

Physical Parameter Table
Parameter Symbol Value Units Sigma Reference Notes
absolute magnitude H 16.9   n/a MPO432680  

117611 (2005 EB92)          Discovered 2005-Mar-08 by LONEOS at Anderson Mesa
Reference: 20051019/Numbers.arcLast Updated: 2005-10-26

Alternate Designations
 2005 EB92 = 2002 NR30 
Ephemeris | Orbit Diagram | Orbital Elements | Mission Design | Physical Parameters | Discovery Circumstances ]
ABOUT SSD CREDITS/AWARDS PRIVACY/COPYRIGHT GLOSSARY LINKS
FirstGov 2020-Aug-03 18:55 UT
(server date/time)  
NASA Home Page
Site Manager:   Ryan S. Park
Webmaster  Alan B. Chamberlin